EW6694 Weather Reports


time (UTC)temp
C
wind
direction
speed
KPH
gust
KPH
rain 1hr
cm
rain 24hr
cm
rain mn
cm
humidity
%
barometer
mb
20260504002800 6 202 4.8 9.7 0.00 0.00 0.00 77 1003.6
20260504002300 6 185 4.8 11.3 0.00 0.00 0.00 76 1003.6
20260504001800 6 195 4.8 11.3 0.00 0.00 0.00 76 1003.6
20260504001259 6 170 6.4 11.3 0.00 0.00 0.00 76 1003.7
20260504000758 6 157 3.2 11.3 0.00 0.00 0.00 76 1003.8
20260504000257 6 112 0.0 11.3 0.00 0.00 0.00 77 1003.8
20260503235757 6 225 3.2 11.3 0.00 0.00 0.00 77 1003.8
20260503235256 6 150 3.2 11.3 0.00 0.00 0.00 77 1003.7
20260503234755 6 154 3.2 11.3 0.00 0.00 0.00 77 1003.8
20260503234256 6 158 3.2 9.7 0.00 0.00 0.00 77 1003.8
20260503234027 6 209 3.2 14.5 0.00 0.00 0.00 78 1003.8
20260503233252 6 157 3.2 14.5 0.00 0.00 0.00 78 1003.8
20260503233022 6 212 6.4 14.5 0.00 0.00 0.00 78 1003.7
20260503232251 6 184 6.4 14.5 0.00 0.00 0.00 78 1003.8
20260503231750 6 210 8.0 9.7 0.00 0.00 0.00 79 1003.8
20260503231522 6 158 1.6 9.7 0.00 0.00 0.00 80 1003.9
20260503230752 6 188 8.0 14.5 0.00 0.00 0.00 79 1004.0
20260503230250 6 164 3.2 14.5 0.00 0.00 0.00 80 1004.0
20260503225748 6 167 3.2 14.5 0.00 0.00 0.00 80 1004.1
20260503225248 6 254 6.4 17.7 0.00 0.00 0.00 80 1004.0
20260503224745 6 198 6.4 19.3 0.00 0.00 0.00 80 1004.0
20260503224245 6 175 6.4 19.3 0.00 0.00 0.00 81 1004.2
20260503223744 5 187 9.7 19.3 0.00 0.00 0.00 80 1004.1
20260503223243 5 180 8.0 16.1 0.00 0.00 0.00 81 1004.1
20260503222743 5 195 11.3 16.1 0.00 0.00 0.00 81 1004.3
20260503222243 5 158 8.0 16.1 0.00 0.00 0.00 81 1004.5
20260503221741 5 205 6.4 16.1 0.00 0.00 0.00 82 1004.5
20260503221239 5 191 9.7 16.1 0.00 0.00 0.00 82 1004.6
20260503220740 5 216 3.2 17.7 0.00 0.00 0.00 82 1004.8
20260503220239 5 229 9.7 20.9 0.00 0.00 0.00 82 1004.8
20260503215741 5 217 4.8 20.9 0.00 0.00 0.00 82 1004.8
20260503215244 5 202 9.7 19.3 0.00 0.00 0.00 82 1004.9
20260503215237 5 213 8.0 20.9 0.00 0.00 0.00 82 1004.9
20260503214235 5 198 8.0 17.7 0.00 0.00 0.00 81 1004.8
20260503213735 5 199 9.7 17.7 0.00 0.00 0.00 81 1004.8
20260503213234 5 243 3.2 16.1 0.00 0.00 0.00 81 1004.8
20260503212732 5 178 6.4 16.1 0.00 0.00 0.00 81 1004.9
20260503212232 5 164 12.9 16.1 0.00 0.00 0.00 81 1005.0
20260503211729 5 180 8.0 19.3 0.00 0.00 0.00 81 1005.1
20260503211501 5 237 11.3 20.9 0.00 0.00 0.00 81 1005.1
20260503210959 5 220 3.2 20.9 0.00 0.00 0.00 80 1005.1
20260503210227 5 191 8.0 17.7 0.00 0.00 0.00 80 1005.1
20260503205726 5 216 9.7 17.7 0.00 0.00 0.00 80 1005.1
20260503205225 5 230 8.0 20.9 0.00 0.00 0.00 80 1005.2
20260503204725 5 184 11.3 20.9 0.00 0.00 0.00 79 1005.2
20260503204459 5 217 11.3 22.5 0.00 0.00 0.00 79 1005.3
20260503203955 5 232 12.9 22.5 0.00 0.00 0.00 80 1005.3
20260503203223 5 281 16.1 25.7 0.00 0.00 0.00 79 1005.4
20260503202720 5 251 9.7 25.7 0.00 0.00 0.00 78 1005.5
20260503202220 6 250 12.9 24.1 0.00 0.00 0.00 77 1005.5
20260503201719 6 261 11.3 24.1 0.00 0.00 0.00 76 1005.5
20260503201449 6 192 12.9 24.1 0.00 0.00 0.00 74 1005.5
20260503200718 6 229 8.0 24.1 0.00 0.00 0.00 73 1005.6
20260503200216 6 236 12.9 24.1 0.00 0.00 0.00 71 1005.6
20260503195717 6 216 16.1 24.1 0.00 0.00 0.00 70 1005.7
20260503195217 7 243 6.4 24.1 0.00 0.00 0.00 66 1005.7
20260503194947 7 175 4.8 22.5 0.00 0.00 0.00 64 1005.7
20260503194215 7 262 6.4 25.7 0.00 0.00 0.00 62 1005.6
20260503193713 7 272 8.0 25.7 0.00 0.00 0.00 59 1005.6
20260503193213 8 241 17.7 25.7 0.00 0.00 0.00 57 1005.5
20260503192715 8 192 14.5 24.1 0.00 0.00 0.00 54 1005.5
20260503192212 8 279 12.9 24.1 0.00 0.00 0.00 52 1005.5
20260503191711 8 172 8.0 24.1 0.00 0.00 0.00 50 1005.5
20260503191210 8 220 9.7 24.1 0.00 0.00 0.00 50 1005.5
20260503190208 8 150 9.7 33.8 0.00 0.00 0.00 49 1005.6
20260503185706 8 189 14.5 33.8 0.00 0.00 0.00 48 1005.7
20260503185206 9 262 16.1 32.2 0.00 0.00 0.00 47 1005.7
20260503184705 9 156 17.7 30.6 0.00 0.00 0.00 44 1005.7
20260503184205 10 237 9.7 30.6 0.00 0.00 0.00 43 1005.8
20260503183710 9 239 17.7 32.2 0.00 0.00 0.00 42 1005.7
20260503183703 9 191 9.7 32.2 0.00 0.00 0.00 43 1005.7
20260503182934 10 226 14.5 29.0 0.00 0.00 0.00 42 1005.7
20260503182202 10 255 17.7 27.4 0.00 0.00 0.00 42 1005.7
20260503181705 10 244 14.5 25.7 0.00 0.00 0.00 41 1005.8
20260503181201 10 267 8.0 30.6 0.00 0.00 0.00 39 1005.8
20260503180930 10 230 6.4 30.6 0.00 0.00 0.00 39 1005.8
20260503180200 10 203 17.7 29.0 0.00 0.00 0.00 38 1005.8
20260503175658 10 227 16.1 29.0 0.00 0.00 0.00 38 1005.8
20260503175429 10 199 20.9 29.0 0.00 0.00 0.00 38 1005.8
20260503174657 11 174 17.7 32.2 0.00 0.00 0.00 38 1005.8
20260503174157 11 237 14.5 32.2 0.00 0.00 0.00 38 1005.9
20260503173655 11 223 16.1 35.4 0.00 0.00 0.00 36 1005.9
20260503173426 11 239 17.7 35.4 0.00 0.00 0.00 37 1005.9
20260503172655 11 209 14.5 32.2 0.00 0.00 0.00 38 1005.9
20260503172154 11 164 11.3 29.0 0.00 0.00 0.00 38 1006.0
20260503171652 11 220 12.9 27.4 0.00 0.00 0.00 37 1006.1
20260503171153 12 205 3.2 20.9 0.00 0.00 0.00 36 1006.2
20260503170654 11 130 12.9 27.4 0.00 0.00 0.00 38 1006.4
20260503170151 11 274 12.9 29.0 0.00 0.00 0.00 39 1006.5
20260503160135 10 272 8.0 24.1 0.00 0.00 0.00 41 1007.3
20260503150623 9 261 6.4 11.3 0.00 0.00 0.00 39 1008.2
20260503150122 9 219 8.0 14.5 0.00 0.00 0.00 39 1008.3
20260503131045 5 299 6.4 14.5 0.00 0.00 0.00 52 1009.6
20260503130530 5 255 0.0 14.5 0.00 0.00 0.00 54 1009.6
20260503110454 0 226 0.0 0.0 0.00 0.00 0.00 81 1009.9
20260503090440 0 251 3.2 9.7 0.00 0.00 0.00 74 1010.3
20260503081615 0 251 6.4 11.3 0.00 0.00 0.00 72 1010.4
20260503081112 0 254 4.8 8.0 0.00 0.00 0.00 72 1010.4
20260503080615 0 261 4.8 8.0 0.00 0.00 0.00 72 1010.4
20260503080112 0 234 4.8 8.0 0.00 0.00 0.00 72 1010.4
20260503072552 0 272 6.4 9.7 0.00 0.00 0.00 69 1010.3
20260503072052 0 254 6.4 9.7 0.00 0.00 0.00 69 1010.3
20260503071548 0 255 6.4 8.0 0.00 0.00 0.00 69 1010.3
20260503071318 0 274 3.2 9.7 0.00 0.00 0.00 68 1010.3
20260503070548 1 258 4.8 9.7 0.00 0.00 0.00 67 1010.3
20260503055034 1 229 8.0 12.9 0.00 0.00 0.00 68 1010.5
20260503054535 1 244 6.4 12.9 0.00 0.00 0.00 68 1010.5
20260503054032 1 271 8.0 12.9 0.00 0.00 0.00 67 1010.5
20260503053805 1 274 6.4 11.3 0.00 0.00 0.00 68 1010.5
20260503053031 1 267 6.4 11.3 0.00 0.00 0.00 68 1010.5
20260503052531 1 270 6.4 12.9 0.00 0.00 0.00 68 1010.5
20260503052031 1 289 6.4 12.9 0.00 0.00 0.00 69 1010.5
20260503051802 1 286 9.7 12.9 0.00 0.00 0.00 70 1010.6
20260503051028 0 288 6.4 8.0 0.00 0.00 0.00 72 1010.6
20260503050529 0 268 4.8 6.4 0.00 0.00 0.00 73 1010.6
20260503050029 0 257 0.0 3.2 0.00 0.00 0.00 73 1010.8
20260503045018 0 247 0.0 3.2 0.00 0.00 0.00 73 1010.8
20260503044747 0 255 1.6 3.2 0.00 0.00 0.00 74 1010.8
20260503044013 0 232 0.0 0.0 0.00 0.00 0.00 74 1010.8
20260503043515 0 232 0.0 0.0 0.00 0.00 0.00 73 1010.8
20260503043005 0 232 0.0 0.0 0.00 0.00 0.00 74 1010.8
20260503042502 0 232 0.0 0.0 0.00 0.00 0.00 73 1010.8
20260503042002 0 232 0.0 0.0 0.00 0.00 0.00 73 1010.8
20260503041842 0 232 0.0 0.0 0.00 0.00 0.00 73 1010.8
20260503041733 0 232 0.0 0.0 0.00 0.00 0.00 73 1010.8
20260503040452 0 232 0.0 0.0 0.00 0.00 0.00 71 1010.8
20260503035424 0 232 0.0 0.0 0.00 0.00 0.00 70 1010.9
20260503034907 0 232 0.0 0.0 0.00 0.00 0.00 70 1010.9
20260503034404 0 232 0.0 0.0 0.00 0.00 0.00 70 1010.9
20260503033859 0 232 0.0 0.0 0.00 0.00 0.00 70 1011.0
20260503033357 1 232 0.0 0.0 0.00 0.00 0.00 69 1011.0
20260503032852 1 232 0.0 0.0 0.00 0.00 0.00 68 1010.9
20260503032340 1 232 0.0 0.0 0.00 0.00 0.00 69 1011.0
20260503031810 1 232 0.0 0.0 0.00 0.00 0.00 70 1011.0
20260503031302 0 232 0.0 0.0 0.00 0.00 0.00 70 1011.0
20260503031015 1 232 0.0 0.0 0.00 0.00 0.00 70 1011.0
20260503030240 1 232 0.0 0.0 0.00 0.00 0.00 70 1011.0
20260503025951 1 232 0.0 0.0 0.00 0.00 0.00 69 1011.2
20260503025828 1 232 0.0 0.0 0.00 0.00 0.00 69 1011.1
20260503024708 1 232 0.0 0.0 0.00 0.00 0.00 67 1011.2
20260503024440 1 232 0.0 0.0 0.00 0.00 0.00 65 1011.2
20260503023701 1 232 0.0 0.0 0.00 0.00 0.00 65 1011.2
20260503023203 1 232 0.0 0.0 0.00 0.00 0.00 65 1011.3
20260503022700 1 232 0.0 0.0 0.00 0.00 0.00 64 1011.3
20260503022154 2 232 0.0 0.0 0.00 0.00 0.00 63 1011.4
20260503021700 2 232 0.0 0.0 0.00 0.00 0.00 62 1011.4
20260503021653 2 232 0.0 0.0 0.00 0.00 0.00 62 1011.4
20260503020643 2 232 0.0 0.0 0.00 0.00 0.00 61 1011.5
20260503020140 3 232 0.0 0.0 0.00 0.00 0.00 60 1011.5
20260503015631 3 232 0.0 3.2 0.00 0.00 0.00 57 1011.4
20260503015121 4 232 0.0 6.4 0.00 0.00 0.00 55 1011.4
20260503014617 4 232 0.0 8.0 0.00 0.00 0.00 54 1011.5
20260503014345 4 223 3.2 8.0 0.00 0.00 0.00 53 1011.5
20260503013608 5 258 4.8 8.0 0.00 0.00 0.00 52 1011.5
20260503013107 5 248 3.2 8.0 0.00 0.00 0.00 52 1011.5
20260503012839 5 251 4.8 8.0 0.00 0.00 0.00 51 1011.5
20260503012339 5 229 4.8 9.7 0.00 0.00 0.00 51 1011.4
20260503011603 5 227 3.2 9.7 0.00 0.00 0.00 50 1011.4
20260503011104 5 216 4.8 9.7 0.00 0.00 0.00 50 1011.4
20260503010835 6 202 0.0 8.0 0.00 0.00 0.00 50 1011.4
20260503010105 6 268 3.2 9.7 0.00 0.00 0.00 49 1011.4
20260503005604 6 253 6.4 11.3 0.00 0.00 0.00 49 1011.4
20260503005100 6 265 8.0 14.5 0.00 0.00 0.00 49 1011.3
20260503004601 6 233 8.0 14.5 0.00 0.00 0.00 49 1011.3
20260503004058 6 230 9.7 14.5 0.00 0.00 0.00 48 1011.3
20260503003605 6 282 11.3 17.7 0.00 0.00 0.00 47 1011.3
20260503003557 6 237 9.7 17.7 0.00 0.00 0.00 48 1011.3